Airfield :
LOGIN :

Register | Disclaimer

   EN    FR    IT 

 










Legend :    VFR   Marginal VFR   IFR   Intensive IFR   Very Intensive IFR
Visi :
Ceiling :
>= 8 km
>= 3000ft
5 to 8 km
1000 to 3000 ft
1500m to 5 km
500 to 1000 ft
800 to 1500m
200 to 500 ft
< 800m
< 200 ft
Symbols :   Thunderstorms  Fog  Heavy snow  Heavy precipitations  Wind > 20 kt
SIGMETs :     Misc.  Thunderstorms  Icing  Turbulence  Mountain Waves  Volcanic Ashes






- Airport Elevation : 46 ft
- IATA code : PAF


LPMT - Montijo Air Base

CURRENT METAR :
  • 240300Z 14002KT CAVOK 10/10 Q1027

EXPIRED METARs :
  • 240200Z 14003KT CAVOK 11/10 Q1027
  • 240100Z 18002KT CAVOK 11/10 Q1027

TAF TAF LPMT
Valid from the 24 at 00:00 until the 25 at 00:00 UTC


232302Z 2400/2424 VRB02KT 9999 FEW030
PROB40 2404/2409 0200 FG OVC002
BECMG 2410/2412 20010KT SCT022 BKN035



MET'MAP, your aeronautical weather chart ! - Copyright ORBIFLY December 2007 - Disclaimer

ORBIFLY MET'MAP TEAM :

Programming & Development : Alexandra Zaïnal
Concept & original design : Baudouin d'Aumeries
Assistance for programming : Marc-Olivier Méhu
Technical & hardware support : Manuel Goepfert

Contact : metmap@orbifly.com




SOURCES & CREDITS :

   NOAA